TimeCDT,TemperatureF,Dew PointF,Humidity,Sea Level PressureIn,VisibilityMPH,Wind Direction,Wind SpeedMPH,Gust SpeedMPH,PrecipitationIn,Events,Conditions,WindDirDegrees,DateUTC
12:15 AM,60.8,57.2,88,29.90,10.0,WNW,3.5,-,N/A,,Overcast,300,2013-06-17 05:15:00
12:35 AM,60.8,57.2,88,29.90,10.0,NW,5.8,-,N/A,,Mostly Cloudy,310,2013-06-17 05:35:00
12:55 AM,60.8,55.4,82,29.91,10.0,NW,6.9,-,N/A,,Overcast,320,2013-06-17 05:55:00
1:15 AM,60.8,55.4,82,29.91,10.0,WNW,4.6,-,N/A,,Mostly Cloudy,300,2013-06-17 06:15:00
1:35 AM,60.8,57.2,88,29.91,10.0,NW,4.6,-,N/A,,Overcast,320,2013-06-17 06:35:00
1:55 AM,60.8,55.4,82,29.91,10.0,NNW,5.8,-,N/A,,Overcast,330,2013-06-17 06:55:00
2:15 AM,60.8,55.4,82,29.92,10.0,NW,4.6,-,N/A,,Overcast,310,2013-06-17 07:15:00
2:35 AM,60.8,57.2,88,29.93,10.0,NNW,6.9,-,N/A,,Overcast,340,2013-06-17 07:35:00
2:55 AM,60.8,55.4,82,29.93,10.0,North,10.4,-,N/A,,Overcast,360,2013-06-17 07:55:00
3:15 AM,59.0,53.6,82,29.93,10.0,North,11.5,-,N/A,,Mostly Cloudy,360,2013-06-17 08:15:00
3:35 AM,57.2,53.6,88,29.93,10.0,North,11.5,-,N/A,,Scattered Clouds,10,2013-06-17 08:35:00
3:55 AM,57.2,53.6,88,29.94,10.0,North,10.4,-,N/A,,Clear,360,2013-06-17 08:55:00
4:15 AM,57.2,53.6,88,29.94,10.0,North,11.5,-,N/A,,Clear,350,2013-06-17 09:15:00
4:35 AM,57.2,55.4,94,29.94,10.0,North,12.7,-,N/A,,Clear,360,2013-06-17 09:35:00
4:55 AM,59.0,55.4,88,29.95,10.0,North,16.1,-,N/A,,Mostly Cloudy,360,2013-06-17 09:55:00
5:15 AM,57.2,55.4,94,29.96,10.0,North,15.0,19.6,N/A,,Overcast,360,2013-06-17 10:15:00
5:35 AM,57.2,55.4,94,29.97,10.0,North,13.8,-,N/A,,Overcast,360,2013-06-17 10:35:00
5:55 AM,59.0,55.4,88,29.97,10.0,North,13.8,-,N/A,,Overcast,10,2013-06-17 10:55:00
6:15 AM,59.0,55.4,88,29.98,10.0,North,10.4,-,N/A,,Overcast,350,2013-06-17 11:15:00
6:35 AM,59.0,55.4,88,29.98,10.0,North,9.2,-,N/A,,Overcast,360,2013-06-17 11:35:00
6:55 AM,59.0,55.4,88,29.99,10.0,North,10.4,-,N/A,,Overcast,360,2013-06-17 11:55:00
7:15 AM,59.0,53.6,82,30.00,10.0,North,11.5,-,N/A,,Overcast,350,2013-06-17 12:15:00
7:35 AM,59.0,55.4,88,30.00,10.0,North,12.7,-,N/A,,Overcast,360,2013-06-17 12:35:00
7:55 AM,59.0,53.6,82,30.01,10.0,North,12.7,-,N/A,,Overcast,350,2013-06-17 12:55:00
8:15 AM,59.0,55.4,88,30.02,10.0,North,11.5,-,N/A,,Overcast,350,2013-06-17 13:15:00
8:35 AM,59.0,53.6,82,30.02,10.0,North,12.7,-,N/A,,Overcast,360,2013-06-17 13:35:00
8:55 AM,59.0,55.4,88,30.03,10.0,NNE,10.4,16.1,N/A,,Overcast,20,2013-06-17 13:55:00
9:15 AM,59.0,53.6,82,30.04,10.0,North,11.5,-,N/A,,Overcast,360,2013-06-17 14:15:00
9:35 AM,60.8,53.6,77,30.04,10.0,North,12.7,-,N/A,,Overcast,360,2013-06-17 14:35:00
9:55 AM,59.0,53.6,82,30.04,10.0,North,16.1,19.6,N/A,,Overcast,360,2013-06-17 14:55:00
10:15 AM,60.8,55.4,82,30.04,10.0,North,12.7,-,N/A,,Overcast,350,2013-06-17 15:15:00
10:35 AM,60.8,55.4,82,30.05,10.0,North,11.5,-,N/A,,Overcast,360,2013-06-17 15:35:00
10:55 AM,60.8,55.4,82,30.06,10.0,North,9.2,-,N/A,,Overcast,360,2013-06-17 15:55:00
11:15 AM,60.8,55.4,82,30.06,10.0,North,8.1,-,N/A,,Overcast,10,2013-06-17 16:15:00
11:35 AM,62.6,55.4,77,30.06,10.0,North,9.2,-,N/A,,Overcast,350,2013-06-17 16:35:00
11:55 AM,62.6,55.4,77,30.06,10.0,North,9.2,-,N/A,,Overcast,360,2013-06-17 16:55:00
12:15 PM,64.4,53.6,68,30.07,10.0,North,8.1,-,N/A,,Overcast,350,2013-06-17 17:15:00
12:35 PM,64.4,53.6,68,30.07,10.0,North,4.6,-,N/A,,Mostly Cloudy,10,2013-06-17 17:35:00
12:55 PM,64.4,53.6,68,30.07,10.0,NNW,4.6,-,N/A,,Overcast,330,2013-06-17 17:55:00
1:15 PM,66.2,53.6,64,30.07,10.0,North,8.1,-,N/A,,Overcast,360,2013-06-17 18:15:00
1:35 PM,66.2,53.6,64,30.06,10.0,NW,10.4,-,N/A,,Overcast,320,2013-06-17 18:35:00
1:55 PM,66.2,55.4,68,30.06,10.0,WNW,9.2,-,N/A,,Partly Cloudy,300,2013-06-17 18:55:00
2:15 PM,68.0,55.4,64,30.06,10.0,NNW,8.1,-,N/A,,Mostly Cloudy,340,2013-06-17 19:15:00
2:35 PM,66.2,53.6,64,30.06,10.0,NW,9.2,-,N/A,,Mostly Cloudy,320,2013-06-17 19:35:00
2:55 PM,68.0,55.4,64,30.05,10.0,WNW,8.1,-,N/A,,Mostly Cloudy,290,2013-06-17 19:55:00
3:15 PM,69.8,53.6,56,30.05,10.0,NNW,10.4,-,N/A,,Overcast,330,2013-06-17 20:15:00
3:35 PM,68.0,53.6,60,30.05,10.0,NW,13.8,20.7,N/A,,Overcast,320,2013-06-17 20:35:00
3:55 PM,68.0,55.4,64,30.05,10.0,NW,11.5,-,N/A,,Mostly Cloudy,320,2013-06-17 20:55:00
4:15 PM,68.0,55.4,64,30.06,10.0,NW,15.0,19.6,N/A,,Mostly Cloudy,320,2013-06-17 21:15:00
4:35 PM,66.2,53.6,64,30.06,10.0,NW,15.0,-,N/A,,Mostly Cloudy,320,2013-06-17 21:35:00
4:55 PM,66.2,53.6,64,30.06,10.0,NNW,12.7,18.4,N/A,,Overcast,330,2013-06-17 21:55:00
5:15 PM,66.2,53.6,64,30.07,10.0,NNW,12.7,-,N/A,,Overcast,330,2013-06-17 22:15:00
5:35 PM,66.2,55.4,68,30.07,10.0,North,11.5,-,N/A,,Scattered Clouds,360,2013-06-17 22:35:00
5:55 PM,66.2,53.6,64,30.07,10.0,North,10.4,-,N/A,,Mostly Cloudy,350,2013-06-17 22:55:00
6:15 PM,66.2,53.6,64,30.06,10.0,North,11.5,-,N/A,,Overcast,360,2013-06-17 23:15:00
6:35 PM,64.4,53.6,68,30.06,10.0,North,11.5,-,N/A,,Overcast,360,2013-06-17 23:35:00
6:55 PM,64.4,53.6,68,30.07,10.0,North,8.1,-,N/A,,Overcast,350,2013-06-17 23:55:00
7:15 PM,66.2,55.4,68,30.06,10.0,NNW,8.1,-,N/A,,Overcast,340,2013-06-18 00:15:00
7:35 PM,66.2,53.6,64,30.06,10.0,North,10.4,-,N/A,,Mostly Cloudy,10,2013-06-18 00:35:00
7:55 PM,66.2,53.6,64,30.06,10.0,North,8.1,-,N/A,,Mostly Cloudy,360,2013-06-18 00:55:00
8:15 PM,66.2,51.8,60,30.06,10.0,North,9.2,-,N/A,,Overcast,360,2013-06-18 01:15:00
8:35 PM,66.2,53.6,64,30.05,10.0,North,8.1,-,N/A,,Overcast,350,2013-06-18 01:35:00
8:55 PM,64.4,53.6,68,30.06,10.0,North,5.8,-,N/A,,Overcast,10,2013-06-18 01:55:00
9:15 PM,64.4,53.6,68,30.06,10.0,North,5.8,-,N/A,,Overcast,360,2013-06-18 02:15:00
9:35 PM,64.4,55.4,73,30.06,10.0,NNW,3.5,-,N/A,,Overcast,330,2013-06-18 02:35:00
9:55 PM,64.4,53.6,68,30.06,10.0,NW,3.5,-,N/A,,Overcast,320,2013-06-18 02:55:00
10:15 PM,62.6,55.4,77,30.07,8.0,NW,3.5,-,N/A,,Overcast,320,2013-06-18 03:15:00
10:35 PM,62.6,55.4,77,30.07,10.0,North,3.5,-,N/A,,Overcast,350,2013-06-18 03:35:00
10:55 PM,60.8,55.4,82,30.08,10.0,North,4.6,-,N/A,,Overcast,10,2013-06-18 03:55:00
11:15 PM,62.6,55.4,77,30.08,10.0,NNW,4.6,-,N/A,,Overcast,340,2013-06-18 04:15:00
11:35 PM,62.6,55.4,77,30.08,10.0,NNW,4.6,-,N/A,,Overcast,340,2013-06-18 04:35:00
11:55 PM,60.8,55.4,82,30.08,10.0,West,4.6,-,N/A,,Overcast,280,2013-06-18 04:55:00